Weather History for MMMZ - October, 2012

Change the Weather History Date:

Tuesday, October 23, 2012

  Actual Average Record
Temperature  
Mean Temperature 78 °F -  
Max Temperature 87 °F - - ()
Min Temperature 69 °F - - ()
Cooling Degree Days 13    
Growing Degree Days 28 (Base 50)    
Moisture  
Dew Point 70 °F    
Average Humidity 79    
Maximum Humidity 94    
Minimum Humidity 58    
Precipitation  
Precipitation 0.00 in - - ()
Sea Level Pressure  
Sea Level Pressure 29.75 in    
Wind  
Wind Speed 6 mph ()    
Max Wind Speed 12 mph    
Max Gust Speed -    
Visibility 10.3 miles    
Events      
T = Trace of Precipitation, MM = Missing Value Source: Averaged Metar Reports

Daily Weather History Graph

Daily Weather History Graph

Search for Another Location

Airport or City:

Trip Planner

Search our weather history database for the weather conditions in past years. The results will help you decide how hot, cold, wet, or windy it might be!

Date:

Astronomy

Oct. 23, 2012 Rise Set
Actual Time 7:05 AM MDT 6:32 PM MDT
Civil Twilight 6:42 AM MDT 6:55 PM MDT
Nautical Twilight 6:16 AM MDT 7:21 PM MDT
Astronomical Twilight 5:50 AM MDT 7:48 PM MDT
Moon 2:42 PM MDT (10/23) 1:40 AM MDT (10/23)
Length of Visible Light 12h 12m
Length of Day
11h 26m
Waxing Gibbous, 67% of the Moon is Illuminated
Oct 23
Waxing Gibbous
Oct 29
Full
Nov 6
Last Quarter
Nov 13
New
Nov 20
First Quarter

Hourly Weather History & Observations

Time (MDT) Temp. Heat Index Dew Point Humidity Pressure Visibility Wind Dir Wind Speed Gust Speed Precip Events Conditions
12:40 AM 73.4 °F - 66.2 °F 78% 29.78 in 10.0 mi WNW 9.2 mph - N/A   Mostly Cloudy
1:51 AM 73.4 °F - 69.8 °F 88% 29.78 in 10.0 mi NNE 5.8 mph - N/A   Mostly Cloudy
2:41 AM 73.4 °F - 69.8 °F 88% 29.77 in 10.0 mi NNE 5.8 mph - N/A   Overcast
3:41 AM 71.6 °F - 69.8 °F 94% 29.76 in 10.0 mi North 5.8 mph - N/A   Overcast
4:40 AM 71.6 °F - 69.8 °F 94% 29.76 in 10.0 mi NNE 6.9 mph - N/A   Overcast
5:53 AM 71.6 °F - 69.8 °F 94% 29.77 in 10.0 mi NNE 6.9 mph - N/A   Mostly Cloudy
6:48 AM 69.8 °F - 68.0 °F 94% 29.77 in 10.0 mi NE 5.8 mph - N/A   Scattered Clouds
7:41 AM 71.6 °F - 68.0 °F 88% 29.78 in 10.0 mi North 6.9 mph - N/A   Partly Cloudy
8:41 AM 78.8 °F - 77.0 °F 94% 29.79 in 10.0 mi North 6.9 mph - N/A   Partly Cloudy
9:48 AM 84.2 °F 92.3 °F 75.2 °F 74% 29.79 in 10.0 mi Calm Calm - N/A   Scattered Clouds
10:40 AM 82.4 °F 87.2 °F 71.6 °F 70% 29.79 in 10.0 mi SW 5.8 mph - N/A   Clear
11:40 AM 84.2 °F 90.9 °F 73.4 °F 70% 29.79 in 12.0 mi WSW 5.8 mph - N/A   Clear
12:44 PM 86.0 °F 93.4 °F 73.4 °F 66% 29.75 in 12.0 mi WSW 6.9 mph - N/A   Partly Cloudy
1:42 PM 87.8 °F 97.6 °F 75.2 °F 66% 29.72 in 12.0 mi West 10.4 mph - N/A   Scattered Clouds
2:41 PM 87.8 °F 95.6 °F 73.4 °F 62% 29.71 in 12.0 mi WSW 10.4 mph - N/A   Clear
3:47 PM 86.0 °F 90.4 °F 69.8 °F 58% 29.69 in 12.0 mi WSW 11.5 mph - N/A   Clear
4:42 PM 84.2 °F 88.4 °F 69.8 °F 62% 29.68 in 12.0 mi West 11.5 mph - N/A   Clear
5:40 PM 82.4 °F 84.6 °F 66.2 °F 58% 29.68 in 12.0 mi West 10.4 mph - N/A   Clear
6:40 PM 78.8 °F - 68.0 °F 69% 29.69 in 10.0 mi WNW 8.1 mph - N/A   Clear
7:45 PM 75.2 °F - 69.8 °F 83% 29.71 in 10.0 mi NNW 6.9 mph - N/A   Clear
8:44 PM 75.2 °F - 68.0 °F 78% 29.71 in 10.0 mi NNW 6.9 mph - N/A   Clear
9:43 PM 73.4 °F - 68.0 °F 83% 29.74 in 8.0 mi West 5.8 mph - N/A   Clear
10:46 PM 73.4 °F - 69.8 °F 88% 29.76 in 8.0 mi ESE 5.8 mph - N/A   Clear
11:43 PM 71.6 °F - 69.8 °F 94% 29.78 in 8.0 mi ESE 8.1 mph - N/A   Clear